Terug naar catalogus

COSMOS 2443

GLONASS

ActiefNavigatieMEO
NORAD 33379·PAYLOAD·🇷🇺 Russia

Gelanceerd Sep 25, 2008 vanaf Baikonur Cosmodrome

Loading…

Volgende Passages (komende 24 uur)

TLE

VersSource: Space-Track

Epoch: Sep 11, 2026, 22:27 UTC

1 33379U 08046B   26254.93580013 -.00000042  00000-0  00000-0 0  9998
2 33379  65.4201 312.0474 0016748 182.5410 176.4611  2.13099665139799

Volg COSMOS 2443 in realtime met AllMySat

Download on the App Store